Weather History for Quesnel, BC

Change the Weather History Date:

Monday, September 30, 2013

  Actual Average Record
Temperature  
Mean Temperature 46 °F -  
Max Temperature 51 °F 56 °F 71 °F (1998)
Min Temperature 41 °F 33 °F 26 °F (1996)
Degree Days  
Heating Degree Days 19    
Moisture  
Dew Point 41 °F    
Average Humidity 80    
Maximum Humidity 93    
Minimum Humidity 66    
Precipitation  
Precipitation 0.00 in - - ()
Sea Level Pressure  
Sea Level Pressure 29.37 in    
Wind  
Wind Speed 7 mph ()    
Max Wind Speed 15 mph    
Max Gust Speed 22 mph    
Visibility 8.0 miles    
Events Rain    
Averages and records for this station are not official NWS values.
T = Trace of Precipitation, MM = Missing Value Source: Averaged Metar Reports

Daily Weather History Graph

Daily Weather History Graph

Search for Another Location

Airport:

Trip Planner

Search our weather history database for the weather conditions in past years. The results will help you decide how hot, cold, wet, or windy it might be!

Date:

Astronomy

Sep. 30, 2013 Rise Set
Actual Time 7:10 AM PDT 6:48 PM PDT
Civil Twilight 6:35 AM PDT 7:22 PM PDT
Nautical Twilight 5:55 AM PDT 8:02 PM PDT
Astronomical Twilight 5:14 AM PDT 8:44 PM PDT
Moon 2:22 AM PDT (9/30) 4:47 PM PDT (9/30)
Length of Visible Light 12h 46m
Length of Day
11h 37m
Waning Crescent, 18% of the Moon is Illuminated
Sep 30
Waning Crescent
Oct 4
New
Oct 11
First Quarter
Oct 18
Full
Oct 26
Last Quarter

Hourly Weather History & Observations

Time (PDT) Temp. Windchill Dew Point Humidity Pressure Visibility Wind Dir Wind Speed Gust Speed Precip Events Conditions
12:00 AM 50.0 °F - 41.0 °F 71% 29.09 in 9.0 mi SSE 9.2 mph 17.3 mph N/A Rain Light Rain
1:00 AM 48.2 °F - 42.8 °F 82% 29.06 in 9.0 mi SE 6.9 mph 17.3 mph N/A Rain Light Rain
2:00 AM 48.2 °F - 42.8 °F 82% 29.06 in 9.0 mi ESE 12.7 mph - N/A Rain Light Rain
2:54 AM 48.2 °F - 42.8 °F 82% 29.05 in 9.0 mi ESE 4.6 mph - N/A   Overcast
3:00 AM 48.2 °F - 42.8 °F 82% 29.05 in 9.0 mi SE 6.9 mph - N/A   Overcast
4:00 AM 48.2 °F - 41.0 °F 76% 29.06 in 9.0 mi ESE 11.5 mph - N/A   Overcast
5:00 AM 48.2 °F - 41.0 °F 76% 29.09 in 9.0 mi SE 8.1 mph - N/A   Overcast
6:00 AM 46.4 °F 44.3 °F 41.0 °F 81% 29.14 in 9.0 mi SE 4.6 mph - N/A   Mostly Cloudy
7:00 AM 44.6 °F 42.2 °F 39.2 °F 81% 29.19 in 9.0 mi South 4.6 mph - N/A   Mostly Cloudy
8:00 AM 44.6 °F 40.2 °F 39.2 °F 81% 29.23 in 9.0 mi SSE 8.1 mph - N/A   Mostly Cloudy
9:00 AM 48.2 °F - 41.0 °F 76% 29.27 in 9.0 mi SSE 10.4 mph - N/A   Mostly Cloudy
9:55 AM 48.2 °F - 39.2 °F 71% 29.30 in 9.0 mi SSE 9.2 mph 17.3 mph N/A Rain Light Rain
10:00 AM 48.2 °F - 39.2 °F 71% 29.30 in 9.0 mi SSE 11.5 mph 18.4 mph N/A Rain Light Rain
10:18 AM 48.2 °F - 39.2 °F 71% 29.32 in 9.0 mi SSE 13.8 mph - N/A   Overcast
11:00 AM 50.0 °F - 39.2 °F 66% 29.34 in 9.0 mi SSE 9.2 mph 17.3 mph N/A   Overcast
12:00 PM 50.0 °F - 41.0 °F 71% 29.37 in 9.0 mi SE 9.2 mph - N/A   Overcast
12:48 PM 46.4 °F 40.4 °F 37.4 °F 71% 29.44 in 5.0 mi SSW 13.8 mph 19.6 mph N/A Rain Light Rain
12:49 PM 46.4 °F 40.1 °F 37.4 °F 71% 29.44 in 3.0 mi SSW 15.0 mph 21.9 mph N/A Rain Heavy Rain
12:52 PM 44.6 °F 38.1 °F 37.4 °F 76% 29.44 in 2.5 mi SSW 13.8 mph 21.9 mph N/A Rain Heavy Rain
12:58 PM 42.8 °F 40.1 °F 39.2 °F 87% 29.44 in 2.2 mi SSE 4.6 mph 21.9 mph N/A Rain Rain
1:00 PM 41.0 °F 39.0 °F 39.2 °F 93% 29.45 in 2.5 mi ESE 3.5 mph 19.6 mph N/A Rain Rain
1:03 PM 41.0 °F 39.0 °F 39.2 °F 93% 29.45 in 3.0 mi East 3.5 mph 17.3 mph N/A Rain Rain
1:29 PM 46.4 °F 45.2 °F 42.8 °F 87% 29.44 in 9.0 mi East 3.5 mph - N/A   Overcast
2:00 PM 48.2 °F - 42.8 °F 82% 29.46 in 9.0 mi ESE 3.5 mph - N/A   Overcast
2:01 PM 48.2 °F - 42.8 °F 82% 29.46 in 9.0 mi ESE 3.5 mph - N/A Rain Light Rain
2:19 PM 48.2 °F - 44.6 °F 87% 29.47 in 9.0 mi ENE 3.5 mph - N/A   Overcast
3:00 PM 50.0 °F - 44.6 °F 82% 29.48 in 9.0 mi ESE 4.6 mph - N/A   Overcast
4:00 PM 50.0 °F - 44.6 °F 82% 29.50 in 9.0 mi East 4.6 mph - N/A   Mostly Cloudy
5:00 PM 50.0 °F - 46.4 °F 87% 29.52 in 9.0 mi ENE 5.8 mph - N/A   Partly Cloudy
6:00 PM 51.8 °F - 44.6 °F 76% 29.55 in 9.0 mi East 5.8 mph - N/A   Overcast
7:00 PM 50.0 °F - 41.0 °F 71% 29.57 in 9.0 mi SE 5.8 mph - N/A   Mostly Cloudy
7:43 PM 48.2 °F - 41.0 °F 76% 29.58 in 9.0 mi East 6.9 mph - N/A Rain Light Rain
8:00 PM 46.4 °F 45.2 °F 41.0 °F 81% 29.58 in 9.0 mi ESE 3.5 mph - N/A Rain Light Rain
8:17 PM 44.6 °F 41.4 °F 41.0 °F 87% 29.58 in 9.0 mi ENE 5.8 mph - N/A   Partly Cloudy
9:00 PM 44.6 °F - 41.0 °F 87% 29.60 in 9.0 mi Variable 2.3 mph - N/A   Mostly Cloudy
10:00 PM 44.6 °F 42.2 °F 39.2 °F 81% 29.61 in 9.0 mi East 4.6 mph - N/A   Scattered Clouds
11:00 PM 42.8 °F - 39.2 °F 87% 29.62 in 9.0 mi Variable 2.3 mph - N/A   Overcast